����,���ϕ���(m/s),���ϕ���,�ő�u�ԕ���(m/s),�ő啗��������,�C��(��),���x(%),10���Ԉړ��ώZ�J��(mm),1���Ԉړ��ώZ�J��(mm),���J��(mm),�݌v�J��(mm)
2024-01-01T00:00:00+09:00,6.4,�k�k��,12.1,�k��,7.1,81.8,0,0.5,10.5,10.5
2024-01-01T00:01:00+09:00,6.5,�k�k��,12.1,�k��,7.1,81.4,0,0.5,0,10.5
2024-01-01T00:02:00+09:00,6.8,�k��,15.2,�k,7,81.7,0,0.5,0,10.5
2024-01-01T00:03:00+09:00,7.2,�k��,15.2,�k,7,81.5,0,0.5,0,10.5
2024-01-01T00:04:00+09:00,7.2,�k��,15.2,�k,7,80.6,0,0.5,0,10.5
2024-01-01T00:05:00+09:00,7.2,�k��,15.2,�k,7,80.7,0,0.5,0,10.5
2024-01-01T00:06:00+09:00,7.2,�k��,15.2,�k,6.9,82,0,0.5,0,10.5
2024-01-01T00:07:00+09:00,7,�k��,15.2,�k,6.9,82,0,0.5,0,10.5
2024-01-01T00:08:00+09:00,7.1,�k��,15.2,�k,6.8,81.6,0,0.5,0,10.5
2024-01-01T00:09:00+09:00,6.8,�k��,15.2,�k,6.8,82.1,0,0.5,0,10.5
2024-01-01T00:10:00+09:00,6.3,�k��,15.2,�k,6.7,82.8,0,0.5,0,10.5
2024-01-01T00:11:00+09:00,6.1,�k��,15.2,�k,6.7,83.6,0,0.5,0,10.5
2024-01-01T00:12:00+09:00,5.8,�k��,12.4,�k�k��,6.6,83.9,0,0.5,0,10.5
2024-01-01T00:13:00+09:00,5.7,�k��,10.7,���k��,6.9,81.8,0,0.5,0,10.5
2024-01-01T00:14:00+09:00,5.7,�k��,10.7,���k��,6.9,82,0,0.5,0,10.5
2024-01-01T00:15:00+09:00,5.8,�k��,10.7,���k��,6.9,81.6,0,0.5,0,10.5
2024-01-01T00:16:00+09:00,5.8,�k��,10.7,���k��,6.8,82.6,0,0.5,0,10.5
2024-01-01T00:17:00+09:00,5.6,�k��,10.7,���k��,6.7,83.5,0,0.5,0,10.5
2024-01-01T00:18:00+09:00,5.5,�k��,10.7,���k��,6.7,84.4,0,0.5,0,10.5
2024-01-01T00:19:00+09:00,5.5,�k��,10.7,���k��,6.6,85,0,0.5,0,10.5
2024-01-01T00:20:00+09:00,5.5,�k��,10.7,���k��,6.8,83.3,0,0.5,0,10.5
2024-01-01T00:21:00+09:00,5.5,�k��,10.7,���k��,6.7,84.7,0,0.5,0,10.5
2024-01-01T00:22:00+09:00,5.4,�k��,10.7,���k��,6.6,85.5,0,0.5,0,10.5
2024-01-01T00:23:00+09:00,5.1,�k��,9,�k��,6.5,86.9,0,0.5,0,10.5
2024-01-01T00:24:00+09:00,5,�k�k��,8.9,�k��,6.6,86.5,0,0.5,0,10.5
2024-01-01T00:25:00+09:00,5.1,�k�k��,8.9,�k��,6.6,85.6,0,0.5,0,10.5
2024-01-01T00:26:00+09:00,5.1,�k�k��,8.9,�k��,6.5,86.4,0,0.5,0,10.5
2024-01-01T00:27:00+09:00,5,�k�k��,8.9,�k��,6.4,87.8,0,0.5,0,10.5
2024-01-01T00:28:00+09:00,5,�k�k��,9.1,�k�k��,6.4,88.4,0,0.5,0,10.5
2024-01-01T00:29:00+09:00,5.1,�k�k��,9.3,�k�k��,6.5,86.6,0,0.5,0,10.5
2024-01-01T00:30:00+09:00,5.2,�k�k��,10.3,�k,6.6,86,0,0.5,0,10.5
2024-01-01T00:31:00+09:00,5.4,�k�k��,10.3,�k,6.6,85,0,0.5,0,10.5
2024-01-01T00:32:00+09:00,5.4,�k�k��,10.3,�k,6.5,86,0,0.5,0,10.5
2024-01-01T00:33:00+09:00,5.5,�k�k��,10.3,�k,6.6,85.3,0,0.5,0,10.5
2024-01-01T00:34:00+09:00,5.4,�k�k��,10.3,�k,6.6,84.9,0,0.5,0,10.5
2024-01-01T00:35:00+09:00,5.3,�k�k��,10.3,�k,6.6,84,0,0.5,0,10.5
2024-01-01T00:36:00+09:00,5.3,�k�k��,10.3,�k,6.7,82.8,0,0.5,0,10.5
2024-01-01T00:37:00+09:00,5.4,�k�k��,10.3,�k,6.7,82,0,0.5,0,10.5
2024-01-01T00:38:00+09:00,5.3,�k�k��,10.3,�k,6.7,82.7,0,0.5,0,10.5
2024-01-01T00:39:00+09:00,5.2,�k�k��,10.3,�k,6.7,81.6,0,0.5,0,10.5
2024-01-01T00:40:00+09:00,5.1,�k�k��,9.3,�k�k��,6.6,83.1,0,0.5,0,10.5
2024-01-01T00:41:00+09:00,5,�k��,9,���k��,6.6,82.2,0,0.5,0,10.5
2024-01-01T00:42:00+09:00,4.9,�k��,9,���k��,6.6,82.2,0,0.5,0,10.5
2024-01-01T00:43:00+09:00,4.6,�k��,9,���k��,6.6,82.9,0,0.5,0,10.5
2024-01-01T00:44:00+09:00,4.8,�k��,10.3,�k�k��,6.5,84.3,0,0.5,0,10.5
2024-01-01T00:45:00+09:00,4.8,�k��,10.3,�k�k��,6.5,83.6,0,0.5,0,10.5
2024-01-01T00:46:00+09:00,4.7,�k��,10.3,�k�k��,6.5,83.6,0,0.5,0,10.5
2024-01-01T00:47:00+09:00,4.6,�k��,10.3,�k�k��,6.6,82.7,0,0,0,10.5
2024-01-01T00:48:00+09:00,4.6,�k��,10.3,�k�k��,6.5,83.5,0,0,0,10.5
2024-01-01T00:49:00+09:00,4.6,�k��,10.3,�k�k��,6.5,83.5,0,0,0,10.5
2024-01-01T00:50:00+09:00,4.8,�k��,10.3,�k�k��,6.7,81.9,0.5,0.5,0.5,11
2024-01-01T00:51:00+09:00,4.8,�k��,10.3,�k�k��,6.6,82.1,0.5,0.5,0.5,11
2024-01-01T00:52:00+09:00,4.9,�k��,10.3,�k�k��,6.5,83.2,0.5,0.5,0.5,11
2024-01-01T00:53:00+09:00,5,�k��,10.3,�k�k��,6.5,83.3,0.5,0.5,0.5,11
2024-01-01T00:54:00+09:00,4.9,�k��,9.4,���k��,6.5,83.6,0.5,0.5,0.5,11
2024-01-01T00:55:00+09:00,4.9,�k��,9.4,���k��,6.5,83.8,0.5,0.5,0.5,11
2024-01-01T00:56:00+09:00,5.1,�k��,9.4,���k��,6.5,83.1,0.5,0.5,0.5,11
2024-01-01T00:57:00+09:00,5.1,�k��,9.4,���k��,6.5,83.5,0.5,0.5,0.5,11
2024-01-01T00:58:00+09:00,5.2,�k��,9.4,���k��,6.4,85.1,0.5,0.5,0.5,11
2024-01-01T00:59:00+09:00,5.3,�k��,9.4,���k��,6.3,85.5,0.5,0.5,0.5,11
2024-01-01T01:00:00+09:00,5.2,�k��,8.2,�k��,6.3,86.5,0,0.5,0.5,11
2024-01-01T01:01:00+09:00,5.2,�k��,8.2,�k��,6.2,87.4,0,0.5,0.5,11
2024-01-01T01:02:00+09:00,5.3,�k��,8.2,�k��,6.2,86.6,0,0.5,0.5,11
2024-01-01T01:03:00+09:00,5.4,�k�k��,8.5,�k�k��,6.3,86.3,0,0.5,0.5,11
2024-01-01T01:04:00+09:00,5.4,�k�k��,9.5,�k,6.3,85.6,0,0.5,0.5,11
2024-01-01T01:05:00+09:00,5.4,�k�k��,9.5,�k,6.3,86.4,0,0.5,0.5,11
2024-01-01T01:06:00+09:00,5.4,�k�k��,9.5,�k,6.2,86.7,0,0.5,0.5,11
2024-01-01T01:07:00+09:00,5.4,�k�k��,9.5,�k,6.2,86.1,0,0.5,0.5,11
2024-01-01T01:08:00+09:00,5.4,�k��,9.5,�k,6.3,84.6,0,0.5,0.5,11
2024-01-01T01:09:00+09:00,5.4,�k��,9.7,�k�k��,6.4,83.6,0,0.5,0.5,11
2024-01-01T01:10:00+09:00,5.5,�k��,9.7,�k�k��,6.3,83.5,0,0.5,0.5,11
2024-01-01T01:11:00+09:00,5.4,�k��,9.7,�k�k��,6.3,83.9,0,0.5,0.5,11
2024-01-01T01:12:00+09:00,5.2,�k��,9.7,�k�k��,6.3,83.8,0,0.5,0.5,11
2024-01-01T01:13:00+09:00,5.1,�k��,9.7,�k�k��,6.2,84.2,0,0.5,0.5,11
2024-01-01T01:14:00+09:00,5,�k��,9.7,�k�k��,6.2,84.8,0,0.5,0.5,11
2024-01-01T01:15:00+09:00,4.9,�k��,9.7,�k�k��,6.2,84.3,0,0.5,0.5,11
2024-01-01T01:16:00+09:00,4.9,�k��,9.7,�k�k��,6.3,83.6,0,0.5,0.5,11
2024-01-01T01:17:00+09:00,4.8,�k��,9.7,�k�k��,6.3,83.2,0,0.5,0.5,11
2024-01-01T01:18:00+09:00,4.9,�k��,9.7,�k�k��,6.3,83,0,0.5,0.5,11
2024-01-01T01:19:00+09:00,4.7,�k��,8.7,�k��,6.3,83.2,0,0.5,0.5,11
2024-01-01T01:20:00+09:00,4.5,�k��,7.5,�k��,6.2,84,0,0.5,0.5,11
2024-01-01T01:21:00+09:00,4.3,�k��,7.5,�k��,6.2,84.6,0,0.5,0.5,11
2024-01-01T01:22:00+09:00,4.4,�k��,8,���k��,6.2,84.9,0,0.5,0.5,11
2024-01-01T01:23:00+09:00,4.5,�k��,8,���k��,6.2,85.1,0,0.5,0.5,11
2024-01-01T01:24:00+09:00,4.5,�k��,8.4,�k�k��,6.3,84.4,0,0.5,0.5,11
2024-01-01T01:25:00+09:00,4.4,�k��,8.4,�k�k��,6.3,84.4,0,0.5,0.5,11
2024-01-01T01:26:00+09:00,4.4,�k��,8.4,�k�k��,6.3,84.2,0,0.5,0.5,11
2024-01-01T01:27:00+09:00,4.4,�k��,8.4,�k�k��,6.4,82.9,0,0.5,0.5,11
2024-01-01T01:28:00+09:00,4.3,�k��,8.4,�k�k��,6.3,83.4,0,0.5,0.5,11
2024-01-01T01:29:00+09:00,4.3,�k��,8.4,�k�k��,6.2,84.5,0,0.5,0.5,11
2024-01-01T01:30:00+09:00,4.4,�k��,8.4,�k�k��,6.3,83.1,0,0.5,0.5,11
2024-01-01T01:31:00+09:00,4.6,�k��,8.4,�k�k��,6.4,82.5,0,0.5,0.5,11
2024-01-01T01:32:00+09:00,4.7,�k��,8.4,�k�k��,6.3,83.9,0,0.5,0.5,11
2024-01-01T01:33:00+09:00,4.6,�k��,8.4,�k�k��,6.3,83.6,0,0.5,0.5,11
2024-01-01T01:34:00+09:00,4.5,�k��,7.9,�k�k��,6.3,83.5,0,0.5,0.5,11
2024-01-01T01:35:00+09:00,4.6,�k��,7.9,�k�k��,6.3,83.4,0,0.5,0.5,11
2024-01-01T01:36:00+09:00,4.6,�k��,7.8,�k��,6.3,82.8,0,0.5,0.5,11
2024-01-01T01:37:00+09:00,4.6,�k��,7.8,�k��,6.4,82.6,0,0.5,0.5,11
2024-01-01T01:38:00+09:00,4.6,�k��,8.3,�k�k��,6.3,83.2,0,0.5,0.5,11
2024-01-01T01:39:00+09:00,4.7,�k��,8.3,�k�k��,6.3,83.4,0,0.5,0.5,11
2024-01-01T01:40:00+09:00,4.6,�k��,8.3,�k�k��,6.4,82.5,0,0.5,0.5,11
2024-01-01T01:41:00+09:00,4.4,�k��,8.3,�k�k��,6.3,83.8,0,0.5,0.5,11
2024-01-01T01:42:00+09:00,4.4,�k��,8.3,�k�k��,6.2,85.3,0,0.5,0.5,11
2024-01-01T01:43:00+09:00,4.4,�k��,8.3,�k�k��,6.2,85.3,0,0.5,0.5,11
2024-01-01T01:44:00+09:00,4.4,�k��,8.3,�k�k��,6.2,85,0.5,1,1,11.5
2024-01-01T01:45:00+09:00,4.3,�k��,8.3,�k�k��,6.2,85.4,0.5,1,1,11.5
2024-01-01T01:46:00+09:00,4.1,�k��,8.3,�k�k��,6.1,86.5,0.5,1,1,11.5
2024-01-01T01:47:00+09:00,4,�k��,8.3,�k�k��,6,86.5,0.5,1,1,11.5
2024-01-01T01:48:00+09:00,4.1,�k��,8.1,�k�k��,6.2,85.4,0.5,1,1,11.5
2024-01-01T01:49:00+09:00,4.1,�k��,8.1,���k��,6.1,85.7,0.5,1,1,11.5
2024-01-01T01:50:00+09:00,4.3,�k��,8.1,���k��,6.3,82.5,0.5,0.5,1,11.5
2024-01-01T01:51:00+09:00,4.5,�k��,8.1,���k��,6.3,82.1,0.5,0.5,1,11.5
2024-01-01T01:52:00+09:00,4.7,�k��,8.6,�k�k��,6.3,81.8,0.5,0.5,1,11.5
2024-01-01T01:53:00+09:00,4.6,�k��,8.6,�k�k��,6.2,83.5,0.5,0.5,1,11.5
2024-01-01T01:54:00+09:00,4.8,�k��,8.6,�k�k��,6.2,81.7,0,0.5,1,11.5
2024-01-01T01:55:00+09:00,4.9,�k��,8.6,�k�k��,6.2,82.3,0,0.5,1,11.5
2024-01-01T01:56:00+09:00,5,�k��,8.6,�k�k��,6.1,83,0,0.5,1,11.5
2024-01-01T01:57:00+09:00,5.2,�k��,8.6,�k�k��,6,84.3,0,0.5,1,11.5
2024-01-01T01:58:00+09:00,5.1,�k��,8.6,�k�k��,6.1,83,0,0.5,1,11.5
2024-01-01T01:59:00+09:00,4.9,�k��,8.6,�k�k��,6.1,82.4,0,0.5,1,11.5
2024-01-01T02:00:00+09:00,4.8,�k��,8.6,�k�k��,6.1,82.7,0,0.5,1,11.5
2024-01-01T02:01:00+09:00,4.7,�k��,8.6,�k�k��,6,83,0,0.5,1,11.5
2024-01-01T02:02:00+09:00,4.5,�k��,8.3,�k��,6,84.1,0,0.5,1,11.5
2024-01-01T02:03:00+09:00,4.6,�k��,9.7,���k��,5.9,84.3,0,0.5,1,11.5
2024-01-01T02:04:00+09:00,4.6,�k��,9.7,���k��,6,82.4,0,0.5,1,11.5
2024-01-01T02:05:00+09:00,4.6,�k��,9.7,���k��,5.9,84.1,0,0.5,1,11.5
2024-01-01T02:06:00+09:00,4.5,�k��,9.7,���k��,5.9,85.1,0,0.5,1,11.5
2024-01-01T02:07:00+09:00,4.3,�k��,9.7,���k��,5.8,85.6,0,0.5,1,11.5
2024-01-01T02:08:00+09:00,4.3,�k��,9.7,���k��,5.7,85.6,0,0.5,1,11.5
2024-01-01T02:09:00+09:00,4.5,�k��,9.7,���k��,5.7,85.2,0,0.5,1,11.5
2024-01-01T02:10:00+09:00,4.5,�k��,9.7,���k��,5.7,85.1,0,0.5,1,11.5
2024-01-01T02:11:00+09:00,4.4,�k��,9.7,���k��,5.8,84.7,0,0.5,1,11.5
2024-01-01T02:12:00+09:00,4.4,�k��,9.7,���k��,5.8,84.7,0,0.5,1,11.5
2024-01-01T02:13:00+09:00,4.2,�k��,7.6,�k��,5.7,85.8,0,0.5,1,11.5
2024-01-01T02:14:00+09:00,4.1,�k��,6.7,�k��,5.7,85.9,0,0.5,1,11.5
2024-01-01T02:15:00+09:00,4,�k��,6.7,�k��,5.7,85.3,0,0.5,1,11.5
2024-01-01T02:16:00+09:00,4.2,�k��,6.7,�k��,5.7,85.2,0,0.5,1,11.5
2024-01-01T02:17:00+09:00,4.2,�k��,6.7,�k��,5.7,85.6,0,0.5,1,11.5
2024-01-01T02:18:00+09:00,4.1,�k��,6.7,�k��,5.6,86.5,0,0.5,1,11.5
2024-01-01T02:19:00+09:00,4,�k��,6.4,�k��,5.5,87.5,0,0.5,1,11.5
2024-01-01T02:20:00+09:00,3.9,�k��,6.4,�k��,5.6,87.5,0,0.5,1,11.5
2024-01-01T02:21:00+09:00,3.8,�k��,6.4,�k��,5.6,87.4,0,0.5,1,11.5
2024-01-01T02:22:00+09:00,3.7,�k��,6.4,�k��,5.5,87.6,0,0.5,1,11.5
2024-01-01T02:23:00+09:00,3.8,�k��,6.4,�k��,5.5,88.2,0,0.5,1,11.5
2024-01-01T02:24:00+09:00,3.8,�k��,6.4,�k��,5.5,89,0.5,1,1.5,12
2024-01-01T02:25:00+09:00,3.8,�k��,6.4,�k��,5.5,88.6,0.5,1,1.5,12
2024-01-01T02:26:00+09:00,3.5,�k��,5.9,�k��,5.4,88.9,0.5,1,1.5,12
2024-01-01T02:27:00+09:00,3.5,�k��,5.9,�k��,5.4,89.6,0.5,1,1.5,12
2024-01-01T02:28:00+09:00,3.6,�k��,5.9,�k��,5.3,90,0.5,1,1.5,12
2024-01-01T02:29:00+09:00,3.7,�k��,5.9,�k��,5.4,89.6,0.5,1,1.5,12
2024-01-01T02:30:00+09:00,3.8,�k��,7.1,�k�k��,5.5,88.2,0.5,1,1.5,12
2024-01-01T02:31:00+09:00,4,�k��,7.1,�k�k��,5.6,86.4,0.5,1,1.5,12
2024-01-01T02:32:00+09:00,3.9,�k��,7.1,�k�k��,5.5,86.5,1,1.5,2,12.5
2024-01-01T02:33:00+09:00,3.9,�k��,7.1,�k�k��,5.4,87,1,1.5,2,12.5
2024-01-01T02:34:00+09:00,4,�k��,7.1,�k�k��,5.4,87.5,0.5,1.5,2,12.5
2024-01-01T02:35:00+09:00,4,�k��,7.1,�k�k��,5.4,87.2,0.5,1.5,2,12.5
2024-01-01T02:36:00+09:00,4.1,�k��,7.1,�k�k��,5.5,86.5,0.5,1.5,2,12.5
2024-01-01T02:37:00+09:00,4.1,�k��,7.1,�k�k��,5.5,86.6,0.5,1.5,2,12.5
2024-01-01T02:38:00+09:00,3.9,�k��,7.1,�k�k��,5.5,86.8,0.5,1.5,2,12.5
2024-01-01T02:39:00+09:00,3.9,�k��,7.1,�k�k��,5.5,86.4,0.5,1.5,2,12.5
2024-01-01T02:40:00+09:00,3.7,�k��,7,�k�k��,5.4,87.2,0.5,1.5,2,12.5
2024-01-01T02:41:00+09:00,3.5,�k��,5.6,�k��,5.4,87.1,0.5,1.5,2,12.5
2024-01-01T02:42:00+09:00,3.5,�k��,5.6,�k��,5.4,87.4,0,1.5,2,12.5
2024-01-01T02:43:00+09:00,3.5,�k��,6.4,�k��,5.5,86.9,0,1.5,2,12.5
2024-01-01T02:44:00+09:00,3.5,�k��,6.4,�k��,5.5,86.5,0,1,2,12.5
2024-01-01T02:45:00+09:00,3.5,�k��,6.4,�k��,5.5,86.4,0,1,2,12.5
2024-01-01T02:46:00+09:00,3.5,���k��,6.4,�k��,5.5,86.1,0,1,2,12.5
2024-01-01T02:47:00+09:00,3.4,���k��,6.4,�k��,5.4,86.8,0.5,1.5,2.5,13
2024-01-01T02:48:00+09:00,3.3,�k��,6.4,�k��,5.4,87.7,0.5,1.5,2.5,13
2024-01-01T02:49:00+09:00,3.2,���k��,6.4,�k��,5.3,88.1,0.5,1.5,2.5,13
2024-01-01T02:50:00+09:00,3.1,���k��,6.4,�k��,5.3,88.6,0.5,1.5,2.5,13
2024-01-01T02:51:00+09:00,3.1,���k��,6.4,�k��,5.4,88,0.5,1.5,2.5,13
2024-01-01T02:52:00+09:00,3.3,���k��,7.3,�k��,5.5,86.2,0.5,1.5,2.5,13
2024-01-01T02:53:00+09:00,3.3,���k��,7.3,�k��,5.6,86.4,0.5,1.5,2.5,13
2024-01-01T02:54:00+09:00,3.2,�k��,7.3,�k��,5.5,86.5,0.5,1.5,2.5,13
2024-01-01T02:55:00+09:00,3.2,�k��,7.3,�k��,5.5,86.9,0.5,1.5,2.5,13
2024-01-01T02:56:00+09:00,3.4,�k��,7.3,�k��,5.4,87.6,0.5,1.5,2.5,13
2024-01-01T02:57:00+09:00,3.6,�k��,7.3,�k��,5.3,88.6,0,1.5,2.5,13
2024-01-01T02:58:00+09:00,3.7,�k��,7.3,�k��,5.3,88.1,0,1.5,2.5,13
2024-01-01T02:59:00+09:00,4,�k��,7.3,�k��,5.4,87,0,1.5,2.5,13
2024-01-01T03:00:00+09:00,4.1,�k��,7.3,�k��,5.4,87.4,0,1.5,2.5,13
2024-01-01T03:01:00+09:00,4.2,�k��,7.3,�k��,5.3,88.5,0,1.5,2.5,13
2024-01-01T03:02:00+09:00,4,�k��,6.7,�k��,5.2,89.1,0,1.5,2.5,13
2024-01-01T03:03:00+09:00,3.8,�k��,6.3,�k��,5.2,89.1,0,1.5,2.5,13
2024-01-01T03:04:00+09:00,3.8,�k��,6.3,�k��,5.4,88.2,0,1.5,2.5,13
2024-01-01T03:05:00+09:00,3.9,�k��,6.3,�k��,5.3,87.8,0,1.5,2.5,13
2024-01-01T03:06:00+09:00,3.8,�k��,5.7,�k�k��,5.4,87.5,0,1.5,2.5,13
2024-01-01T03:07:00+09:00,3.8,�k��,5.7,�k�k��,5.5,85.5,0,1.5,2.5,13
2024-01-01T03:08:00+09:00,3.7,�k��,5.7,�k�k��,5.5,85.5,0,1.5,2.5,13
2024-01-01T03:09:00+09:00,3.7,�k��,6,���k��,5.5,86.2,0,1.5,2.5,13
2024-01-01T03:10:00+09:00,3.8,�k��,6,���k��,5.5,85.9,0,1.5,2.5,13
2024-01-01T03:11:00+09:00,3.8,�k��,6.3,�k��,5.5,86,0,1.5,2.5,13
2024-01-01T03:12:00+09:00,3.9,�k��,6.3,�k��,5.5,85.8,0,1.5,2.5,13
2024-01-01T03:13:00+09:00,3.9,�k��,6.3,�k��,5.5,85.8,0,1.5,2.5,13
2024-01-01T03:14:00+09:00,4,�k��,6.3,�k��,5.4,86,0,1.5,2.5,13
2024-01-01T03:15:00+09:00,4,�k��,6.3,�k��,5.4,86.3,0,1.5,2.5,13
2024-01-01T03:16:00+09:00,3.8,�k��,6.3,�k��,5.4,86.7,0,1.5,2.5,13
2024-01-01T03:17:00+09:00,3.6,�k��,6.3,�k��,5.4,86.6,0,1.5,2.5,13
2024-01-01T03:18:00+09:00,3.7,�k��,6.3,�k��,5.4,87.1,0,1.5,2.5,13
2024-01-01T03:19:00+09:00,3.5,�k��,6.3,�k��,5.4,86.6,0,1.5,2.5,13
2024-01-01T03:20:00+09:00,3.3,�k��,6.3,�k��,5.3,88.4,0,1.5,2.5,13
2024-01-01T03:21:00+09:00,3.1,�k��,5.9,�k�k��,5.3,90.1,0,1.5,2.5,13
2024-01-01T03:22:00+09:00,3,�k��,5.2,���k��,5.2,91.3,0,1.5,2.5,13
2024-01-01T03:23:00+09:00,2.9,�k�k��,5.2,���k��,5.1,92.1,0.5,2,3,13.5
2024-01-01T03:24:00+09:00,2.8,�k�k��,5,�k�k��,5.1,92.6,0.5,1.5,3,13.5
2024-01-01T03:25:00+09:00,2.7,�k�k��,4.4,�k��,5.1,92.1,0.5,1.5,3,13.5
2024-01-01T03:26:00+09:00,2.8,�k�k��,4.4,�k��,5.1,92.5,0.5,1.5,3,13.5
2024-01-01T03:27:00+09:00,2.9,�k�k��,4.7,�k�k��,5.1,92.6,0.5,1.5,3,13.5
2024-01-01T03:28:00+09:00,2.9,�k�k��,4.7,�k�k��,5.1,92.2,0.5,1.5,3,13.5
2024-01-01T03:29:00+09:00,2.9,�k�k��,4.7,�k�k��,5.1,92.1,0.5,1.5,3,13.5
2024-01-01T03:30:00+09:00,3.1,�k�k��,5,�k��,5.2,91.8,0.5,1.5,3,13.5
2024-01-01T03:31:00+09:00,3.3,�k�k��,7.1,���k��,5.2,90.5,0.5,1.5,3,13.5
2024-01-01T03:32:00+09:00,3.5,�k�k��,7.1,���k��,5.3,88.7,1,1.5,3.5,14
2024-01-01T03:33:00+09:00,3.6,�k��,7.1,���k��,5.4,87.7,0.5,1.5,3.5,14
2024-01-01T03:34:00+09:00,3.8,�k��,7.1,���k��,5.4,86.9,0.5,1.5,3.5,14
2024-01-01T03:35:00+09:00,3.9,�k��,7.1,���k��,5.4,86.4,0.5,1.5,3.5,14
2024-01-01T03:36:00+09:00,4,�k��,7.1,���k��,5.3,86.8,0.5,1.5,3.5,14
2024-01-01T03:37:00+09:00,4.1,�k��,7.1,���k��,5.3,86.9,0.5,1.5,3.5,14
2024-01-01T03:38:00+09:00,4.1,�k��,7.1,���k��,5.3,86.9,0.5,1.5,3.5,14
2024-01-01T03:39:00+09:00,4.1,�k��,7.1,���k��,5.2,87.3,0.5,1.5,3.5,14
2024-01-01T03:40:00+09:00,4.3,�k��,7.9,�k��,5.2,86.7,0.5,1.5,3.5,14
2024-01-01T03:41:00+09:00,4.3,�k��,7.9,�k��,5.3,85.3,1,2,4,14.5
2024-01-01T03:42:00+09:00,4.3,�k��,7.9,�k��,5.3,85.5,0.5,2,4,14.5
2024-01-01T03:43:00+09:00,4.2,�k��,7.9,�k��,5.2,86.4,0.5,2,4,14.5
2024-01-01T03:44:00+09:00,4.1,�k��,7.9,�k��,5.2,87.2,0.5,2,4,14.5
2024-01-01T03:45:00+09:00,3.8,�k��,7.9,�k��,5.2,87.3,0.5,2,4,14.5
2024-01-01T03:46:00+09:00,3.6,�k��,7.9,�k��,5.2,87.7,0.5,2,4,14.5
2024-01-01T03:47:00+09:00,3.4,�k�k��,7.9,�k��,5.2,87.5,0.5,1.5,4,14.5
2024-01-01T03:48:00+09:00,3.3,�k�k��,7.9,�k��,5.3,86.7,0.5,1.5,4,14.5
2024-01-01T03:49:00+09:00,3.2,�k�k��,7.9,�k��,5.3,86.3,0.5,1.5,4,14.5
2024-01-01T03:50:00+09:00,2.8,�k�k��,7.1,�k��,5.3,86.9,0.5,1.5,4,14.5
2024-01-01T03:51:00+09:00,2.3,�k�k��,5.6,�k�k��,5.2,87.3,0,1.5,4,14.5
2024-01-01T03:52:00+09:00,2,�k�k��,5,�k��,5.2,87.8,0,1.5,4,14.5
2024-01-01T03:53:00+09:00,1.8,�k�k��,3.9,�k�k��,5.2,88.4,0,1.5,4,14.5
2024-01-01T03:54:00+09:00,1.7,�k,3.9,�k�k��,5.2,88.5,0,1.5,4,14.5
2024-01-01T03:55:00+09:00,1.8,�k�k��,3.9,�k�k��,5.2,87.5,0,1.5,4,14.5
2024-01-01T03:56:00+09:00,1.9,�k�k��,3.9,�k�k��,5.2,86.5,0,1.5,4,14.5
2024-01-01T03:57:00+09:00,1.9,�k�k��,3.9,�k�k��,5.2,86.1,0,1.5,4,14.5
2024-01-01T03:58:00+09:00,1.9,�k�k��,3.9,�k��,5.2,86.1,0,1.5,4,14.5
2024-01-01T03:59:00+09:00,1.9,�k��,3.9,�k��,5.2,86.5,0,1.5,4,14.5
2024-01-01T04:00:00+09:00,2,�k��,3.9,�k��,5.1,87.5,0,1.5,4,14.5
2024-01-01T04:01:00+09:00,2.2,�k��,3.9,�k��,5.2,87.4,0,1.5,4,14.5
2024-01-01T04:02:00+09:00,2.4,�k��,3.9,�k��,5.3,86.5,0,1.5,4,14.5
2024-01-01T04:03:00+09:00,2.4,�k��,3.9,�k��,5.2,87.9,0,1.5,4,14.5
2024-01-01T04:04:00+09:00,2.3,�k��,3.9,�k��,5.1,89.4,0,1.5,4,14.5
2024-01-01T04:05:00+09:00,2.2,�k��,3.9,�k��,5,90.3,0,1.5,4,14.5
2024-01-01T04:06:00+09:00,2.1,�k�k��,3.6,���k��,5,91.5,0,1.5,4,14.5
2024-01-01T04:07:00+09:00,2.1,�k�k��,3.6,���k��,5,92.4,0,1.5,4,14.5
2024-01-01T04:08:00+09:00,2,�k,3.6,���k��,5,92.6,0,1.5,4,14.5
2024-01-01T04:09:00+09:00,2.1,�k,3.6,���k��,5,92.6,0,1.5,4,14.5
2024-01-01T04:10:00+09:00,2.1,�k,3.6,���k��,5,92.4,0,1.5,4,14.5
2024-01-01T04:11:00+09:00,2.1,�k�k��,3.5,�k�k��,5,92.3,0,1.5,4,14.5
2024-01-01T04:12:00+09:00,2,�k�k��,3.5,�k�k��,5,92.9,0,1.5,4,14.5
2024-01-01T04:13:00+09:00,2,�k�k��,3.5,�k�k��,5,92.9,0,1.5,4,14.5
2024-01-01T04:14:00+09:00,2.1,�k�k��,3.5,�k�k��,5,92.9,0.5,2,4.5,15
2024-01-01T04:15:00+09:00,2,�k�k��,3.5,�k�k��,5,92.6,0.5,2,4.5,15
2024-01-01T04:16:00+09:00,2.1,�k�k��,3.5,�k�k��,5,93,0.5,2,4.5,15
2024-01-01T04:17:00+09:00,2,�k�k��,3.5,�k�k��,4.9,93.7,0.5,2,4.5,15
2024-01-01T04:18:00+09:00,2,�k�k��,3.5,�k�k��,4.8,94.3,0.5,2,4.5,15
2024-01-01T04:19:00+09:00,1.9,�k,3.4,�k�k��,4.9,94.7,0.5,2,4.5,15
2024-01-01T04:20:00+09:00,1.8,�k,3,�k�k��,4.9,95.1,0.5,2,4.5,15
2024-01-01T04:21:00+09:00,1.8,�k,3,�k�k��,4.8,95.2,0.5,2,4.5,15
2024-01-01T04:22:00+09:00,1.8,�k,3,�k�k��,4.9,95.3,0.5,2,4.5,15
2024-01-01T04:23:00+09:00,1.8,�k,3,�k�k��,4.9,95.5,0.5,1.5,4.5,15
2024-01-01T04:24:00+09:00,1.8,�k,3,�k�k��,4.9,95.4,0,1.5,4.5,15
2024-01-01T04:25:00+09:00,1.8,�k,3.3,�k,4.9,95.2,0,1.5,4.5,15
2024-01-01T04:26:00+09:00,1.9,�k,3.3,�k,4.9,95.2,0,1.5,4.5,15
2024-01-01T04:27:00+09:00,1.9,�k,3.3,�k,4.9,95.1,0,1.5,4.5,15
2024-01-01T04:28:00+09:00,2,�k,3.3,�k,4.9,95,0,1.5,4.5,15
2024-01-01T04:29:00+09:00,2,�k,3.3,�k,4.9,94.3,0,1.5,4.5,15
2024-01-01T04:30:00+09:00,1.9,�k,3.3,�k,5,94.4,0,1.5,4.5,15
2024-01-01T04:31:00+09:00,1.9,�k,3.3,�k,5,94.6,0,1.5,4.5,15
2024-01-01T04:32:00+09:00,2,�k,3.3,�k,5,94,0,1,4.5,15
2024-01-01T04:33:00+09:00,1.9,�k,3.3,�k,5.1,93.6,0,1,4.5,15
2024-01-01T04:34:00+09:00,1.9,�k,3.3,�k,5.1,93.6,0,1,4.5,15
2024-01-01T04:35:00+09:00,2,�k,3.2,�k,5,93.5,0,1,4.5,15
2024-01-01T04:36:00+09:00,2,�k,3.2,�k,5,93.7,0,1,4.5,15
2024-01-01T04:37:00+09:00,2,�k,3.3,�k,5,93.9,0,1,4.5,15
2024-01-01T04:38:00+09:00,2,�k,3.3,�k,5,93.8,0,1,4.5,15
2024-01-01T04:39:00+09:00,2,�k,3.3,�k,5,94.2,0,1,4.5,15
2024-01-01T04:40:00+09:00,2,�k,3.3,�k,5,94.7,0,1,4.5,15
2024-01-01T04:41:00+09:00,2,�k,3.3,�k,5,94.9,0,0.5,4.5,15
2024-01-01T04:42:00+09:00,2,�k,3.3,�k,5,94.9,0,0.5,4.5,15
2024-01-01T04:43:00+09:00,2.1,�k,3.3,�k,5,95,0,0.5,4.5,15
2024-01-01T04:44:00+09:00,2.1,�k,3.3,�k,5,94.8,0,0.5,4.5,15
2024-01-01T04:45:00+09:00,2.1,�k,3.3,�k,5.1,94.5,0,0.5,4.5,15
2024-01-01T04:46:00+09:00,2,�k,3.3,�k,5.2,93.1,0,0.5,4.5,15
2024-01-01T04:47:00+09:00,1.9,�k,3.3,�k,5.2,93.1,0,0.5,4.5,15
2024-01-01T04:48:00+09:00,1.9,�k,3.3,�k,5.2,93.7,0,0.5,4.5,15
2024-01-01T04:49:00+09:00,1.9,�k,3.3,�k,5.1,93.9,0,0.5,4.5,15
2024-01-01T04:50:00+09:00,1.8,�k,3.3,�k,5.1,94.3,0,0.5,4.5,15
2024-01-01T04:51:00+09:00,1.6,�k,3.3,�k,5.1,94.6,0,0.5,4.5,15
2024-01-01T04:52:00+09:00,1.5,�k,3.3,�k,5,94.8,0,0.5,4.5,15
2024-01-01T04:53:00+09:00,1.5,�k,3,�k�k��,5.1,95,0,0.5,4.5,15
2024-01-01T04:54:00+09:00,1.5,�k,3,�k�k��,5.1,94.7,0,0.5,4.5,15
2024-01-01T04:55:00+09:00,1.5,�k,3,�k�k��,5,94.7,0,0.5,4.5,15
2024-01-01T04:56:00+09:00,1.5,�k�k��,3,�k�k��,5,95,0,0.5,4.5,15
2024-01-01T04:57:00+09:00,1.5,�k�k��,3,�k�k��,5.1,95.1,0,0.5,4.5,15
2024-01-01T04:58:00+09:00,1.4,�k�k��,3,�k�k��,5.1,95.1,0,0.5,4.5,15
2024-01-01T04:59:00+09:00,1.4,�k,3,�k�k��,5.1,94.9,0,0.5,4.5,15
2024-01-01T05:00:00+09:00,1.5,�k,3,�k�k��,5,95,0,0.5,4.5,15
2024-01-01T05:01:00+09:00,1.6,�k,3,�k�k��,5.1,95.2,0,0.5,4.5,15
2024-01-01T05:02:00+09:00,1.7,�k,3,�k�k��,5.2,94.6,0,0.5,4.5,15
2024-01-01T05:03:00+09:00,1.7,�k,3,�k,5.1,94.6,0,0.5,4.5,15
2024-01-01T05:04:00+09:00,1.7,�k,3,�k,5,95,0,0.5,4.5,15
2024-01-01T05:05:00+09:00,1.7,�k,3,�k,5,95.4,0.5,1,5,15.5
2024-01-01T05:06:00+09:00,1.8,�k,4.1,�k,5,95.7,0.5,1,5,15.5
2024-01-01T05:07:00+09:00,1.9,�k,4.1,�k,5,95.8,0.5,1,5,15.5
2024-01-01T05:08:00+09:00,2.1,�k,4.1,�k,5,95.7,0.5,1,5,15.5
2024-01-01T05:09:00+09:00,2.4,�k,6.1,�k�k��,5,95.6,0.5,1,5,15.5
2024-01-01T05:10:00+09:00,2.6,�k,6.1,�k�k��,5.2,94.4,0.5,1,5,15.5
2024-01-01T05:11:00+09:00,2.8,�k,6.1,�k�k��,5.4,91.7,0.5,1,5,15.5
2024-01-01T05:12:00+09:00,2.9,�k,6.1,�k�k��,5.3,92.6,0.5,1,5,15.5
2024-01-01T05:13:00+09:00,3,�k,6.1,�k�k��,5.2,93.4,1,1.5,5.5,16
2024-01-01T05:14:00+09:00,3,�k�k��,6.1,�k�k��,5.2,92.9,1,1,5.5,16
2024-01-01T05:15:00+09:00,3,�k�k��,6.1,�k�k��,5.2,92.4,0.5,1,5.5,16
2024-01-01T05:16:00+09:00,2.9,�k�k��,6.1,�k�k��,5.3,91.5,0.5,1,5.5,16
2024-01-01T05:17:00+09:00,2.9,�k�k��,6.1,�k�k��,5.2,91.4,0.5,1,5.5,16
2024-01-01T05:18:00+09:00,2.9,�k�k��,6.1,�k�k��,5.2,91.7,0.5,1,5.5,16
2024-01-01T05:19:00+09:00,2.9,�k�k��,5.9,�k��,5.2,91.5,0.5,1,5.5,16
2024-01-01T05:20:00+09:00,2.7,�k�k��,5.1,�k,5.3,90.5,0.5,1,5.5,16
2024-01-01T05:21:00+09:00,2.6,�k�k��,5.1,�k,5.2,90.8,0.5,1,5.5,16
2024-01-01T05:22:00+09:00,2.4,�k�k��,5.1,�k,5.2,91.2,1,1.5,6,16.5
2024-01-01T05:23:00+09:00,2.3,�k�k��,5.1,�k,5.2,91.8,0.5,1.5,6,16.5
2024-01-01T05:24:00+09:00,2.3,�k�k��,5.1,�k,5.2,91,0.5,1.5,6,16.5
2024-01-01T05:25:00+09:00,2.2,�k�k��,5.1,�k,5.2,90.6,0.5,1.5,6,16.5
2024-01-01T05:26:00+09:00,2.2,�k�k��,5.1,�k,5.2,90.4,0.5,1.5,6,16.5
2024-01-01T05:27:00+09:00,2.3,�k�k��,5.3,�k�k��,5.2,89.1,0.5,1.5,6,16.5
2024-01-01T05:28:00+09:00,2.4,�k�k��,5.3,�k�k��,5.3,87.3,0.5,1.5,6,16.5
2024-01-01T05:29:00+09:00,2.3,�k�k��,5.3,�k�k��,5.3,85.7,0.5,1.5,6,16.5
2024-01-01T05:30:00+09:00,2.3,�k�k��,5.3,�k�k��,5.3,85.8,0.5,1.5,6,16.5
2024-01-01T05:31:00+09:00,2.4,�k�k��,5.3,�k�k��,5.3,85.9,0.5,1.5,6,16.5
2024-01-01T05:32:00+09:00,2.6,�k��,5.3,�k�k��,5.3,86.4,0,1.5,6,16.5
2024-01-01T05:33:00+09:00,2.7,�k��,5.3,�k�k��,5.3,86.1,0,1.5,6,16.5
2024-01-01T05:34:00+09:00,2.9,�k��,5.3,�k�k��,5.3,86.1,0,1.5,6,16.5
2024-01-01T05:35:00+09:00,3.1,�k��,5.3,�k�k��,5.3,87.2,0,1.5,6,16.5
2024-01-01T05:36:00+09:00,3.1,�k��,5.3,�k�k��,5.2,88,0,1.5,6,16.5
2024-01-01T05:37:00+09:00,2.9,���k��,5,�k�k��,5.2,87.8,0,1.5,6,16.5
2024-01-01T05:38:00+09:00,2.8,���k��,4.6,�k,5.2,88.3,0,1.5,6,16.5
2024-01-01T05:39:00+09:00,2.7,���k��,4.1,���k��,5.1,89.6,0,1.5,6,16.5
2024-01-01T05:40:00+09:00,2.9,���k��,4.4,�k��,5.2,88.3,0,1.5,6,16.5
2024-01-01T05:41:00+09:00,2.9,���k��,4.4,�k��,5.2,88.2,0,1.5,6,16.5
2024-01-01T05:42:00+09:00,2.9,���k��,4.4,�k��,5.2,88.6,0,1.5,6,16.5
2024-01-01T05:43:00+09:00,2.9,���k��,4.8,�k��,5.2,88.8,0,1.5,6,16.5
2024-01-01T05:44:00+09:00,2.8,���k��,4.8,�k��,5.1,89,0,1.5,6,16.5
2024-01-01T05:45:00+09:00,2.7,���k��,4.8,�k��,5,89.8,0,1.5,6,16.5
2024-01-01T05:46:00+09:00,2.7,���k��,4.8,�k��,5,90.2,0,1.5,6,16.5
2024-01-01T05:47:00+09:00,2.6,���k��,4.8,�k��,5,90.6,0,1.5,6,16.5
2024-01-01T05:48:00+09:00,2.5,�k��,4.8,�k��,5,91.5,0,1.5,6,16.5
2024-01-01T05:49:00+09:00,2.6,�k��,4.8,�k��,5,91.4,0,1.5,6,16.5
2024-01-01T05:50:00+09:00,2.5,�k��,4.8,�k��,5,91,0,1.5,6,16.5
2024-01-01T05:51:00+09:00,2.3,�k��,4.8,�k��,5.1,90.9,0,1.5,6,16.5
2024-01-01T05:52:00+09:00,2.3,�k�k��,4.8,�k��,5,91.4,0,1.5,6,16.5
2024-01-01T05:53:00+09:00,2.1,�k�k��,4.6,�k�k��,4.9,91.7,0,1.5,6,16.5
2024-01-01T05:54:00+09:00,2,�k,4.6,�k�k��,4.9,92.2,0,1.5,6,16.5
2024-01-01T05:55:00+09:00,2,�k,4.6,�k�k��,4.9,92.6,0,1.5,6,16.5
2024-01-01T05:56:00+09:00,1.9,�k�k��,4.6,�k�k��,4.9,93.1,0,1.5,6,16.5
2024-01-01T05:57:00+09:00,2,�k�k��,4.6,�k�k��,4.9,93,0,1.5,6,16.5
2024-01-01T05:58:00+09:00,1.9,�k�k��,4,�k�k��,4.9,93.2,0,1.5,6,16.5